QPF
0.00 0.00 0.01 0.00 0.00 0.01 0.02 0.02 0.02 0.01 0.01 0.01 0.01 0.01 0.02 0.03 0.03 0.03 0.02 0.02 0.03 0.02 0.01 0.01 0.01 0.01 0.01 0.01 0.01 0.02 0.02 0.02 0.03 0.03 0.04 0.04 0.03 0.01 0.00 0.01 0.01 0.01 0.01
0.01 0.01 0.02 0.01 0.01 0.01 0.01 0.02 0.01 0.00 0.02 0.03 0.01 0.00 0.00 0.01 0.02 0.02 0.02 0.03 0.04 0.03 0.03 0.02 0.02 0.01 0.01 0.01 0.03 0.03 0.02 0.02 0.02 0.03 0.04 0.06 0.06 0.03 0.01 0.01 0.01 0.02 0.01
0.02 0.04 0.05 0.04 0.02 0.01 0.01 0.01 0.01 0.01 0.01 0.02 0.01 0.00 0.00 0.00 0.00 0.01 0.02 0.02 0.02 0.02 0.02 0.04 0.05 0.05 0.02 0.03 0.05 0.04 0.04 0.03 0.03 0.02 0.02 0.05 0.07 0.03 0.01 0.01 0.02 0.03 0.01
0.01 0.03 0.05 0.05 0.04 0.03 0.03 0.03 0.02 0.01 0.01 0.01 0.00 0.00 0.00 0.00 0.00 0.00 0.01 0.02 0.03 0.03 0.04 0.06 0.08 0.08 0.06 0.07 0.07 0.05 0.05 0.04 0.03 0.02 0.01 0.01 0.05 0.05 0.01 0.00 0.01 0.01 0.00
0.01 0.01 0.04 0.06 0.06 0.05 0.05 0.04 0.03 0.02 0.02 0.02 0.01 0.00 0.00 0.00 0.00 0.00 0.00 0.00 0.01 0.02 0.04 0.05 0.08 0.09 0.08 0.07 0.07 0.08 0.08 0.08 0.04 0.01 0.01 0.03 0.07 0.08 0.03 0.01 0.00 0.00 0.00
0.01 0.02 0.04 0.05 0.06 0.06 0.07 0.06 0.04 0.03 0.03 0.02 0.01 0.01 0.01 0.01 0.02 0.02 0.01 0.01 0.00 0.01 0.03 0.06 0.10 0.13 0.08 0.06 0.09 0.10 0.12 0.11 0.07 0.03 0.02 0.04 0.07 0.11 0.09 0.05 0.03 0.01 0.00
0.03 0.04 0.04 0.04 0.05 0.06 0.06 0.05 0.04 0.03 0.03 0.03 0.02 0.02 0.02 0.02 0.01 0.02 0.03 0.02 0.01 0.01 0.02 0.03 0.07 0.13 0.10 0.09 0.12 0.12 0.13 0.10 0.08 0.07 0.02 0.01 0.04 0.13 0.22 0.15 0.09 0.02 0.00
0.00 0.00 0.00 0.01 0.01 0.02 0.04 0.05 0.04 0.03 0.03 0.03 0.03 0.02 0.02 0.02 0.03 0.05 0.07 0.05 0.03 0.02 0.02 0.02 0.04 0.08 0.11 0.11 0.12 0.12 0.12 0.06 0.08 0.13 0.08 0.02 0.05 0.21 0.28 0.35 0.23 0.07 0.01
0.00 0.00 0.00 0.00 0.00 0.00 0.02 0.03 0.03 0.02 0.02 0.02 0.02 0.01 0.01 0.02 0.03 0.06 0.06 0.05 0.04 0.04 0.04 0.03 0.01 0.03 0.08 0.11 0.10 0.10 0.09 0.04 0.06 0.18 0.17 0.12 0.08 0.20 0.24 0.34 0.36 0.20 0.06
0.00 0.00 0.00 0.00 0.00 0.00 0.00 0.01 0.01 0.01 0.02 0.03 0.02 0.02 0.02 0.02 0.04 0.06 0.05 0.05 0.05 0.05 0.05 0.04 0.03 0.02 0.02 0.03 0.05 0.05 0.04 0.02 0.03 0.10 0.21 0.18 0.11 0.18 0.22 0.27 0.32 0.27 0.16
0.00 0.00 0.00 0.00 0.00 0.00 0.00 0.00 0.00 0.00 0.01 0.02 0.04 0.04 0.03 0.03 0.03 0.03 0.02 0.04 0.04 0.04 0.03 0.03 0.03 0.04 0.03 0.01 0.01 0.01 0.01 0.00 0.01 0.03 0.06 0.09 0.13 0.11 0.17 0.23 0.26 0.25 0.18
0.00 0.00 0.00 0.00 0.00 0.00 0.00 0.00 0.00 0.00 0.00 0.01 0.02 0.03 0.03 0.04 0.04 0.06 0.06 0.07 0.05 0.03 0.04 0.04 0.04 0.04 0.02 0.00 0.00 0.00 0.00 0.00 0.00 0.00 0.00 0.01 0.05 0.07 0.10 0.17 0.27 0.28 0.20
0.00 0.00 0.00 0.00 0.00 0.00 0.00 0.00 0.00 0.00 0.00 0.00 0.00 0.00 0.00 0.01 0.02 0.04 0.04 0.06 0.06 0.06 0.08 0.08 0.07 0.05 0.04 0.03 0.02 0.01 0.00 0.00 0.00 0.00 0.00 0.00 0.00 0.01 0.05 0.13 0.24 0.30 0.27
0.00 0.00 0.00 0.00 0.00 0.00 0.00 0.00 0.00 0.00 0.00 0.00 0.00 0.00 0.00 0.00 0.00 0.01 0.02 0.02 0.03 0.06 0.08 0.13 0.12 0.11 0.07 0.05 0.03 0.02 0.00 0.00 0.00 0.00 0.00 0.00 0.00 0.00 0.01 0.07 0.19 0.34 0.33
0.00 0.00 0.00 0.00 0.00 0.00 0.00 0.00 0.00 0.00 0.00 0.00 0.00 0.00 0.00 0.00 0.00 0.00 0.00 0.00 0.01 0.01 0.02 0.03 0.05 0.06 0.06 0.05 0.04 0.02 0.01 0.00 0.00 0.00 0.00 0.00 0.00 0.00 0.00 0.02 0.08 0.28 0.43
0.00 0.00 0.00 0.00 0.00 0.00 0.00 0.00 0.00 0.00 0.00 0.00 0.00 0.00 0.00 0.00 0.00 0.00 0.00 0.00 0.00 0.00 0.00 0.00 0.01 0.02 0.02 0.02 0.02 0.02 0.01 0.01 0.00 0.00 0.00 0.00 0.00 0.00 0.00 0.00 0.03 0.10 0.29
0.00 0.00 0.00 0.00 0.00 0.00 0.00 0.00 0.00 0.00 0.00 0.00 0.00 0.00 0.00 0.00 0.00 0.00 0.00 0.00 0.00 0.00 0.00 0.00 0.00 0.00 0.00 0.01 0.01 0.00 0.00 0.00 0.00 0.00 0.00 0.00 0.00 0.00 0.00 0.00 0.01 0.04 0.10
0.00 0.00 0.00 0.00 0.00 0.00 0.00 0.00 0.00 0.00 0.00 0.00 0.00 0.00 0.00 0.00 0.00 0.00 0.00 0.00 0.00 0.00 0.00 0.00 0.00 0.00 0.00 0.00 0.00 0.00 0.00 0.00 0.00 0.00 0.00 0.00 0.00 0.00 0.00 0.00 0.00 0.02 0.04
0.00 0.00 0.00 0.00 0.00 0.00 0.00 0.00 0.00 0.00 0.00 0.00 0.00 0.00 0.00 0.00 0.00 0.00 0.00 0.00 0.00 0.00 0.00 0.00 0.00 0.00 0.00 0.00 0.00 0.00 0.00 0.00 0.00 0.00 0.00 0.00 0.00 0.00 0.00 0.00 0.00 0.01 0.03
0.00 0.00 0.00 0.00 0.00 0.00 0.00 0.00 0.00 0.00 0.00 0.00 0.00 0.00 0.00 0.00 0.00 0.00 0.00 0.00 0.00 0.00 0.00 0.00 0.00 0.00 0.00 0.00 0.00 0.00 0.00 0.00 0.00 0.00 0.00 0.00 0.00 0.00 0.00 0.00 0.00 0.00 0.01
0.00 0.00 0.00 0.00 0.00 0.00 0.00 0.00 0.00 0.00 0.00 0.00 0.00 0.00 0.00 0.00 0.00 0.00 0.00 0.00 0.00 0.00 0.00 0.00 0.00 0.00 0.00 0.01 0.01 0.01 0.00 0.00 0.00 0.00 0.00 0.00 0.00 0.00 0.00 0.00 0.00 0.01 0.00
0.00 0.00 0.00 0.00 0.00 0.00 0.00 0.00 0.00 0.00 0.00 0.00 0.00 0.00 0.00 0.00 0.00 0.00 0.00 0.00 0.00 0.00 0.00 0.00 0.00 0.00 0.00 0.01 0.02 0.03 0.01 0.00 0.00 0.00 0.00 0.00 0.00 0.00 0.00 0.00 0.00 0.01 0.01
0.00 0.00 0.00 0.00 0.00 0.00 0.00 0.00 0.00 0.00 0.00 0.00 0.00 0.00 0.00 0.00 0.00 0.00 0.00 0.00 0.00 0.00 0.00 0.00 0.00 0.00 0.00 0.00 0.01 0.03 0.04 0.01 0.00 0.00 0.00 0.00 0.00 0.00 0.00 0.00 0.00 0.01 0.01
0.00 0.00 0.00 0.00 0.00 0.00 0.00 0.00 0.00 0.00 0.00 0.00 0.00 0.00 0.00 0.00 0.00 0.00 0.00 0.00 0.00 0.00 0.00 0.00 0.00 0.00 0.01 0.01 0.00 0.01 0.03 0.04 0.03 0.01 0.00 0.00 0.00 0.00 0.00 0.00 0.00 0.00 0.00
0.00 0.00 0.00 0.00 0.00 0.00 0.00 0.00 0.00 0.00 0.00 0.00 0.00 0.00 0.00 0.00 0.00 0.00 0.00 0.00 0.00 0.00 0.00 0.00 0.00 0.00 0.00 0.01 0.01 0.01 0.01 0.02 0.03 0.03 0.02 0.01 0.00 0.00 0.00 0.00 0.00 0.00 0.00
0.00 0.00 0.00 0.00 0.00 0.00 0.00 0.00 0.00 0.00 0.00 0.00 0.00 0.00 0.00 0.01 0.01 0.01 0.00 0.00 0.00 0.00 0.00 0.00 0.00 0.00 0.01 0.01 0.01 0.01 0.01 0.01 0.02 0.03 0.04 0.02 0.01 0.00 0.00 0.00 0.00 0.00 0.00
MSLP
1019.78 1019.22 1018.68 1018.26 1017.98 1017.83 1017.77 1017.72 1017.63 1017.46 1017.19 1016.88 1016.57 1016.31 1016.14 1016.05 1016.03 1016.04 1016.04 1015.99 1015.87 1015.70 1015.51 1015.31 1015.16 1015.07 1015.02 1015.01 1015.01 1014.99 1014.96 1014.90 1014.84 1014.79 1014.76 1014.77 1014.81 1014.87 1014.94 1014.98 1015.01 1015.02 1015.03
1020.87 1020.11 1019.37 1018.78 1018.36 1018.12 1018.00 1017.91 1017.80 1017.61 1017.34 1017.03 1016.71 1016.46 1016.29 1016.21 1016.19 1016.21 1016.19 1016.12 1015.98 1015.78 1015.55 1015.35 1015.19 1015.09 1015.04 1015.03 1015.02 1014.99 1014.93 1014.85 1014.77 1014.71 1014.70 1014.73 1014.81 1014.91 1015.01 1015.09 1015.13 1015.14 1015.14
1021.98 1021.02 1020.09 1019.33 1018.79 1018.45 1018.26 1018.13 1017.99 1017.78 1017.49 1017.17 1016.85 1016.59 1016.41 1016.32 1016.30 1016.29 1016.25 1016.14 1015.97 1015.74 1015.50 1015.29 1015.13 1015.04 1015.00 1015.00 1014.98 1014.94 1014.86 1014.75 1014.65 1014.58 1014.57 1014.63 1014.75 1014.89 1015.04 1015.15 1015.21 1015.23 1015.22
1022.98 1021.86 1020.79 1019.92 1019.28 1018.87 1018.62 1018.44 1018.25 1018.01 1017.70 1017.34 1017.00 1016.71 1016.51 1016.40 1016.35 1016.30 1016.22 1016.07 1015.87 1015.62 1015.36 1015.15 1015.01 1014.93 1014.91 1014.91 1014.90 1014.84 1014.74 1014.61 1014.49 1014.41 1014.40 1014.49 1014.64 1014.83 1015.01 1015.16 1015.26 1015.28 1015.27
1023.79 1022.58 1021.45 1020.52 1019.84 1019.40 1019.11 1018.89 1018.65 1018.35 1017.99 1017.58 1017.19 1016.85 1016.61 1016.46 1016.35 1016.26 1016.13 1015.95 1015.71 1015.43 1015.18 1014.97 1014.84 1014.79 1014.79 1014.80 1014.78 1014.71 1014.59 1014.44 1014.30 1014.21 1014.20 1014.30 1014.47 1014.70 1014.93 1015.12 1015.24 1015.29 1015.29
1024.39 1023.16 1022.04 1021.14 1020.49 1020.06 1019.75 1019.50 1019.21 1018.83 1018.39 1017.90 1017.43 1017.04 1016.73 1016.52 1016.36 1016.22 1016.04 1015.82 1015.54 1015.25 1014.98 1014.78 1014.66 1014.63 1014.64 1014.66 1014.64 1014.57 1014.43 1014.26 1014.09 1013.99 1013.98 1014.08 1014.28 1014.53 1014.79 1015.01 1015.16 1015.24 1015.26
1024.79 1023.63 1022.60 1021.80 1021.23 1020.84 1020.55 1020.26 1019.90 1019.45 1018.90 1018.32 1017.76 1017.29 1016.91 1016.63 1016.42 1016.22 1015.99 1015.72 1015.42 1015.10 1014.83 1014.62 1014.50 1014.47 1014.49 1014.51 1014.49 1014.40 1014.25 1014.07 1013.89 1013.77 1013.76 1013.86 1014.06 1014.32 1014.59 1014.84 1015.02 1015.13 1015.18
1025.07 1024.04 1023.16 1022.50 1022.05 1021.73 1021.45 1021.13 1020.71 1020.16 1019.51 1018.83 1018.18 1017.62 1017.18 1016.83 1016.56 1016.31 1016.03 1015.72 1015.38 1015.03 1014.73 1014.50 1014.37 1014.32 1014.33 1014.34 1014.31 1014.22 1014.06 1013.87 1013.69 1013.57 1013.55 1013.65 1013.84 1014.09 1014.37 1014.63 1014.83 1014.96 1015.05
1025.34 1024.46 1023.76 1023.26 1022.92 1022.67 1022.41 1022.06 1021.56 1020.93 1020.19 1019.42 1018.69 1018.06 1017.55 1017.15 1016.82 1016.52 1016.19 1015.83 1015.44 1015.04 1014.70 1014.43 1014.26 1014.18 1014.15 1014.14 1014.09 1014.00 1013.85 1013.67 1013.50 1013.39 1013.37 1013.46 1013.64 1013.88 1014.14 1014.39 1014.59 1014.74 1014.86
1025.69 1024.97 1024.43 1024.07 1023.83 1023.62 1023.35 1022.96 1022.40 1021.69 1020.87 1020.04 1019.26 1018.58 1018.03 1017.59 1017.21 1016.86 1016.47 1016.05 1015.60 1015.14 1014.73 1014.40 1014.17 1014.02 1013.95 1013.89 1013.83 1013.73 1013.59 1013.43 1013.30 1013.21 1013.21 1013.30 1013.47 1013.68 1013.92 1014.14 1014.32 1014.48 1014.62
1026.19 1025.61 1025.20 1024.93 1024.73 1024.52 1024.22 1023.77 1023.15 1022.38 1021.53 1020.67 1019.88 1019.19 1018.62 1018.15 1017.73 1017.32 1016.87 1016.38 1015.85 1015.31 1014.82 1014.40 1014.08 1013.86 1013.71 1013.60 1013.51 1013.40 1013.28 1013.16 1013.06 1013.02 1013.06 1013.16 1013.32 1013.51 1013.71 1013.89 1014.04 1014.18 1014.31
1026.87 1026.40 1026.05 1025.81 1025.60 1025.34 1024.98 1024.46 1023.79 1022.99 1022.14 1021.30 1020.53 1019.86 1019.30 1018.81 1018.36 1017.89 1017.37 1016.79 1016.17 1015.54 1014.95 1014.43 1014.01 1013.69 1013.46 1013.28 1013.13 1013.01 1012.90 1012.82 1012.77 1012.79 1012.87 1013.01 1013.17 1013.35 1013.51 1013.65 1013.75 1013.85 1013.96
1027.71 1027.30 1026.97 1026.69 1026.41 1026.06 1025.61 1025.02 1024.31 1023.51 1022.69 1021.91 1021.20 1020.58 1020.04 1019.55 1019.06 1018.53 1017.93 1017.26 1016.55 1015.83 1015.14 1014.51 1013.98 1013.55 1013.21 1012.94 1012.73 1012.57 1012.46 1012.40 1012.41 1012.49 1012.63 1012.80 1012.99 1013.16 1013.30 1013.39 1013.45 1013.50 1013.57
1028.65 1028.26 1027.90 1027.55 1027.15 1026.68 1026.12 1025.46 1024.72 1023.95 1023.20 1022.50 1021.87 1021.31 1020.81 1020.32 1019.80 1019.21 1018.54 1017.79 1016.99 1016.17 1015.39 1014.66 1014.02 1013.47 1013.01 1012.63 1012.33 1012.11 1011.96 1011.91 1011.95 1012.08 1012.27 1012.50 1012.72 1012.91 1013.04 1013.10 1013.11 1013.11 1013.14
1029.61 1029.22 1028.81 1028.35 1027.82 1027.22 1026.55 1025.83 1025.08 1024.35 1023.67 1023.07 1022.54 1022.05 1021.59 1021.10 1020.55 1019.90 1019.16 1018.34 1017.47 1016.59 1015.72 1014.91 1014.17 1013.51 1012.92 1012.41 1011.99 1011.66 1011.45 1011.36 1011.40 1011.55 1011.79 1012.06 1012.33 1012.55 1012.68 1012.74 1012.73 1012.70 1012.69
1030.50 1030.11 1029.64 1029.08 1028.43 1027.71 1026.94 1026.17 1025.42 1024.74 1024.14 1023.63 1023.19 1022.77 1022.33 1021.84 1021.26 1020.57 1019.78 1018.91 1018.00 1017.07 1016.17 1015.30 1014.47 1013.70 1012.98 1012.32 1011.75 1011.28 1010.95 1010.78 1010.77 1010.91 1011.16 1011.47 1011.78 1012.03 1012.20 1012.28 1012.28 1012.24 1012.22
1031.27 1030.89 1030.38 1029.74 1028.99 1028.18 1027.34 1026.53 1025.79 1025.15 1024.62 1024.18 1023.80 1023.43 1023.01 1022.51 1021.90 1021.18 1020.36 1019.48 1018.56 1017.63 1016.71 1015.81 1014.92 1014.06 1013.21 1012.40 1011.66 1011.03 1010.54 1010.24 1010.13 1010.21 1010.43 1010.74 1011.07 1011.37 1011.58 1011.70 1011.73 1011.72 1011.72
1031.90 1031.54 1031.02 1030.33 1029.53 1028.65 1027.77 1026.93 1026.20 1025.59 1025.11 1024.71 1024.37 1024.01 1023.59 1023.08 1022.45 1021.71 1020.89 1020.02 1019.12 1018.22 1017.33 1016.43 1015.52 1014.59 1013.63 1012.67 1011.75 1010.93 1010.26 1009.78 1009.53 1009.50 1009.65 1009.92 1010.25 1010.57 1010.82 1011.00 1011.09 1011.13 1011.17
1032.39 1032.08 1031.57 1030.88 1030.06 1029.15 1028.24 1027.40 1026.66 1026.07 1025.60 1025.22 1024.87 1024.50 1024.07 1023.53 1022.88 1022.14 1021.34 1020.50 1019.66 1018.83 1017.99 1017.13 1016.22 1015.24 1014.20 1013.11 1012.03 1011.03 1010.16 1009.49 1009.05 1008.87 1008.90 1009.09 1009.37 1009.69 1009.97 1010.19 1010.35 1010.47 1010.57
1032.79 1032.53 1032.07 1031.41 1030.59 1029.68 1028.77 1027.92 1027.18 1026.57 1026.08 1025.68 1025.30 1024.90 1024.42 1023.85 1023.19 1022.46 1021.69 1020.92 1020.15 1019.40 1018.63 1017.83 1016.95 1015.96 1014.87 1013.69 1012.48 1011.31 1010.26 1009.39 1008.76 1008.40 1008.27 1008.33 1008.53 1008.80 1009.08 1009.33 1009.55 1009.73 1009.91
1033.15 1032.95 1032.54 1031.91 1031.13 1030.24 1029.33 1028.47 1027.72 1027.08 1026.55 1026.10 1025.66 1025.20 1024.68 1024.08 1023.41 1022.69 1021.96 1021.25 1020.56 1019.89 1019.20 1018.47 1017.64 1016.67 1015.57 1014.34 1013.05 1011.76 1010.56 1009.52 1008.70 1008.15 1007.84 1007.74 1007.81 1007.99 1008.22 1008.47 1008.72 1008.96 1009.21
1033.51 1033.36 1033.00 1032.42 1031.67 1030.81 1029.92 1029.06 1028.27 1027.59 1027.01 1026.48 1025.98 1025.45 1024.88 1024.24 1023.56 1022.85 1022.15 1021.49 1020.86 1020.26 1019.65 1018.98 1018.20 1017.28 1016.20 1014.97 1013.65 1012.31 1011.01 1009.85 1008.87 1008.14 1007.64 1007.37 1007.27 1007.32 1007.47 1007.68 1007.92 1008.19 1008.49
1033.90 1033.77 1033.45 1032.91 1032.20 1031.38 1030.50 1029.64 1028.83 1028.10 1027.45 1026.86 1026.28 1025.68 1025.05 1024.38 1023.68 1022.97 1022.28 1021.64 1021.05 1020.49 1019.92 1019.30 1018.58 1017.71 1016.68 1015.50 1014.21 1012.86 1011.54 1010.31 1009.23 1008.34 1007.68 1007.22 1006.96 1006.85 1006.88 1007.01 1007.22 1007.48 1007.80
1034.30 1034.19 1033.88 1033.38 1032.71 1031.92 1031.07 1030.21 1029.38 1028.61 1027.91 1027.24 1026.59 1025.93 1025.25 1024.53 1023.80 1023.08 1022.39 1021.74 1021.15 1020.58 1020.02 1019.42 1018.72 1017.90 1016.94 1015.83 1014.61 1013.33 1012.04 1010.80 1009.67 1008.69 1007.89 1007.27 1006.84 1006.58 1006.48 1006.50 1006.64 1006.88 1007.19
1034.70 1034.58 1034.28 1033.81 1033.17 1032.42 1031.60 1030.75 1029.92 1029.12 1028.37 1027.65 1026.94 1026.22 1025.49 1024.73 1023.97 1023.21 1022.49 1021.80 1021.16 1020.56 1019.96 1019.33 1018.64 1017.85 1016.94 1015.92 1014.80 1013.61 1012.40 1011.20 1010.07 1009.05 1008.17 1007.44 1006.87 1006.47 1006.24 1006.16 1006.23 1006.41 1006.69
1035.05 1034.91 1034.62 1034.17 1033.57 1032.86 1032.08 1031.26 1030.44 1029.63 1028.85 1028.08 1027.32 1026.55 1025.77 1024.98 1024.17 1023.37 1022.59 1021.84 1021.13 1020.44 1019.76 1019.07 1018.35 1017.56 1016.69 1015.74 1014.72 1013.64 1012.53 1011.42 1010.34 1009.33 1008.41 1007.61 1006.95 1006.44 1006.11 1005.94 1005.94 1006.08 1006.32
Thickness
5702 5705 5704 5707 5709 5710 5712 5713 5714 5715 5716 5718 5720 5720 5721 5722 5724 5725 5725 5726 5727 5728 5728 5728 5729 5729 5728 5731 5733 5734 5734 5735 5734 5735 5734 5733 5734 5735 5736 5736 5737 5738 5736
5695 5699 5698 5700 5702 5704 5705 5706 5707 5709 5710 5712 5713 5714 5715 5716 5717 5718 5719 5720 5721 5722 5723 5724 5725 5726 5726 5727 5729 5730 5731 5732 5732 5732 5732 5731 5731 5732 5732 5732 5734 5737 5734
5683 5687 5690 5693 5696 5699 5700 5701 5702 5703 5705 5706 5707 5707 5708 5709 5710 5711 5712 5714 5715 5716 5718 5720 5721 5723 5724 5724 5726 5727 5727 5728 5729 5729 5730 5732 5731 5730 5730 5730 5730 5731 5732
5668 5673 5677 5682 5687 5690 5692 5695 5696 5698 5699 5700 5700 5701 5702 5702 5703 5704 5705 5707 5708 5710 5712 5714 5716 5718 5720 5721 5722 5723 5723 5724 5724 5726 5730 5733 5731 5728 5727 5726 5726 5727 5728
5659 5663 5667 5672 5675 5679 5682 5685 5688 5690 5692 5693 5694 5694 5695 5695 5696 5697 5698 5700 5702 5704 5706 5708 5711 5712 5715 5718 5718 5718 5719 5719 5720 5723 5729 5729 5727 5724 5724 5723 5723 5723 5724
5652 5655 5658 5662 5665 5668 5672 5675 5678 5680 5683 5686 5687 5688 5688 5689 5689 5690 5692 5693 5695 5698 5700 5702 5705 5708 5709 5712 5714 5714 5714 5714 5716 5722 5724 5723 5722 5720 5720 5720 5720 5720 5720
5645 5647 5649 5651 5654 5657 5660 5663 5665 5668 5671 5674 5677 5679 5681 5682 5683 5684 5684 5686 5687 5691 5694 5695 5698 5701 5703 5705 5707 5708 5709 5710 5713 5717 5719 5719 5718 5715 5715 5716 5716 5717 5717
5636 5638 5640 5641 5642 5644 5645 5647 5649 5652 5656 5659 5663 5666 5669 5672 5675 5676 5677 5678 5680 5683 5685 5687 5689 5693 5695 5698 5700 5702 5703 5705 5709 5711 5713 5715 5713 5710 5710 5711 5712 5713 5713
5628 5629 5630 5631 5632 5632 5632 5632 5634 5636 5640 5643 5646 5650 5654 5657 5661 5665 5666 5668 5671 5674 5675 5678 5680 5683 5686 5689 5693 5695 5697 5699 5703 5703 5706 5707 5707 5705 5705 5706 5707 5708 5708
5620 5621 5620 5620 5620 5621 5622 5621 5622 5624 5625 5628 5631 5633 5638 5642 5646 5649 5652 5656 5660 5663 5666 5668 5671 5674 5677 5680 5683 5687 5689 5691 5696 5697 5697 5698 5699 5699 5700 5700 5702 5704 5705
5610 5608 5607 5607 5607 5608 5610 5610 5610 5611 5611 5613 5615 5617 5622 5626 5629 5633 5636 5640 5646 5651 5655 5659 5661 5664 5667 5671 5674 5677 5681 5687 5692 5691 5691 5691 5692 5693 5695 5696 5698 5700 5701
5594 5592 5590 5590 5589 5591 5593 5594 5595 5595 5595 5596 5597 5600 5603 5607 5611 5616 5621 5627 5632 5638 5643 5648 5652 5655 5658 5665 5669 5669 5675 5681 5684 5686 5687 5685 5685 5687 5689 5692 5694 5696 5697
5579 5576 5575 5574 5572 5572 5574 5574 5576 5577 5577 5579 5579 5581 5584 5588 5593 5598 5604 5610 5616 5623 5628 5634 5641 5647 5651 5656 5659 5664 5668 5672 5676 5679 5681 5680 5679 5681 5683 5686 5688 5691 5693
5565 5562 5560 5558 5556 5554 5554 5554 5555 5555 5557 5559 5560 5562 5564 5567 5571 5576 5583 5589 5596 5603 5609 5617 5626 5633 5639 5644 5648 5653 5658 5661 5666 5671 5674 5674 5674 5676 5678 5680 5683 5686 5689
5552 5547 5544 5541 5539 5536 5535 5534 5533 5533 5533 5535 5537 5540 5542 5545 5549 5553 5559 5566 5574 5581 5589 5598 5609 5618 5626 5633 5638 5642 5647 5652 5657 5661 5665 5666 5669 5671 5673 5675 5678 5682 5685
5534 5528 5523 5519 5515 5512 5511 5509 5508 5508 5508 5509 5511 5513 5517 5521 5526 5531 5537 5543 5551 5559 5567 5576 5588 5599 5610 5619 5627 5633 5638 5642 5647 5652 5657 5660 5662 5666 5668 5670 5674 5677 5680
5515 5509 5505 5500 5496 5491 5488 5484 5482 5481 5480 5480 5482 5484 5487 5492 5499 5506 5513 5520 5527 5535 5545 5556 5567 5579 5591 5602 5612 5621 5629 5635 5639 5644 5649 5652 5656 5660 5663 5665 5668 5672 5675
5493 5488 5483 5478 5474 5469 5463 5457 5454 5452 5450 5450 5451 5453 5455 5460 5467 5476 5486 5495 5501 5510 5521 5533 5544 5557 5570 5582 5595 5606 5615 5623 5629 5636 5641 5645 5649 5654 5658 5660 5662 5665 5669
5475 5468 5462 5455 5450 5444 5437 5429 5424 5420 5418 5417 5419 5421 5424 5429 5434 5443 5454 5465 5475 5486 5497 5508 5520 5532 5547 5561 5575 5589 5600 5609 5617 5624 5632 5638 5642 5646 5651 5655 5656 5658 5663
5452 5443 5434 5427 5422 5417 5412 5408 5403 5398 5393 5390 5389 5389 5392 5397 5404 5412 5422 5433 5445 5459 5471 5483 5495 5509 5523 5539 5555 5572 5586 5596 5605 5613 5621 5629 5634 5639 5644 5649 5652 5654 5656
5431 5420 5408 5399 5394 5393 5392 5388 5385 5384 5381 5378 5373 5369 5369 5371 5375 5381 5391 5402 5414 5428 5440 5454 5468 5484 5501 5517 5534 5555 5573 5586 5595 5603 5611 5619 5626 5631 5636 5641 5646 5649 5653
5410 5397 5384 5378 5375 5374 5372 5367 5364 5366 5366 5364 5360 5356 5353 5354 5355 5356 5359 5369 5382 5396 5411 5424 5438 5454 5472 5489 5504 5526 5554 5572 5586 5594 5601 5609 5617 5623 5627 5632 5637 5642 5647
5389 5375 5366 5362 5360 5358 5355 5352 5350 5351 5350 5348 5345 5342 5338 5336 5335 5335 5336 5339 5348 5362 5379 5393 5408 5425 5443 5460 5477 5495 5524 5551 5567 5583 5591 5598 5606 5613 5618 5622 5626 5632 5638
5368 5358 5351 5347 5344 5341 5337 5335 5332 5332 5331 5328 5326 5325 5323 5322 5319 5318 5318 5319 5323 5331 5347 5363 5379 5396 5414 5435 5452 5471 5490 5506 5529 5557 5575 5584 5592 5600 5607 5611 5616 5621 5627
5351 5344 5338 5334 5330 5324 5319 5316 5313 5312 5310 5310 5309 5309 5309 5309 5306 5304 5304 5304 5306 5312 5321 5336 5354 5372 5390 5410 5428 5445 5465 5484 5503 5524 5547 5566 5577 5585 5593 5600 5604 5609 5615
5337 5331 5325 5320 5315 5308 5302 5297 5293 5292 5291 5291 5292 5292 5293 5295 5294 5293 5292 5292 5294 5299 5306 5318 5334 5352 5371 5390 5409 5425 5441 5461 5487 5504 5523 5542 5557 5571 5578 5585 5591 5597 5603